When you browse on this site, cookies collect data to enhance your experience and personalize the content and advertising you see.
Visit our Privacy Policy to learn more. By continuing to use the site, you agree to this use of cookies and data.
  • în România
  • Lista ţărilor
  • Pe 7 zile
  • Temperatura apei
  • Hartă satelitară
  • Meteo pe hartă
  • Widget-uri
  • user-avatar
    Intrare

    Meteo pe oră la Da Nang

    Astăzi, 22 Ianuarie, Marţi

    Timp Temperatura Precipitaţii Vânt Presiune Umiditate
    00:00 +22°C° 1.2 mm 4 m/s 762 mmHg 96%
    01:00 +22°C° 0 mm 3 m/s 762 mmHg 97%
    02:00 +22°C° 0.9 mm 3 m/s 762 mmHg 97%
    03:00 +22°C° 0.9 mm 3 m/s 762 mmHg 97%
    04:00 +21°C° 0.9 mm 4 m/s 762 mmHg 97%
    05:00 +21°C° 1.1 mm 4 m/s 762 mmHg 97%
    06:00 +21°C° 1.1 mm 4 m/s 763 mmHg 97%
    07:00 +21°C° 0 mm 3 m/s 763 mmHg 97%
    08:00 +21°C° 0.9 mm 3 m/s 763 mmHg 97%
    09:00 +21°C° 0.9 mm 3 m/s 764 mmHg 96%
    10:00 +22°C° 0.9 mm 3 m/s 764 mmHg 96%
    11:00 +21°C° 0.7 mm 3 m/s 764 mmHg 96%
    12:00 +21°C° 0.7 mm 3 m/s 763 mmHg 96%
    13:00 +21°C° 0.7 mm 3 m/s 763 mmHg 96%
    14:00 +21°C° 0.4 mm 3 m/s 763 mmHg 96%
    15:00 +21°C° 0.4 mm 3 m/s 762 mmHg 96%
    16:00 +21°C° 0.4 mm 3 m/s 762 mmHg 97%
    17:00 +21°C° 0.3 mm 3 m/s 762 mmHg 96%
    18:00 +21°C° 0.3 mm 2 m/s 762 mmHg 96%
    19:00 +21°C° 0.3 mm 2 m/s 762 mmHg 96%
    20:00 +21°C° 0.4 mm 2 m/s 762 mmHg 96%
    21:00 +21°C° 0.4 mm 2 m/s 763 mmHg 96%
    22:00 +21°C° 0.4 mm 2 m/s 763 mmHg 96%
    23:00 +21°C° 0.3 mm 2 m/s 763 mmHg 96%

    Mâine, 23 Ianuarie, Miercuri

    Timp Temperatura Precipitaţii Vânt Presiune Umiditate
    00:00 +21°C° 0.3 mm 2 m/s 762 mmHg 96%
    01:00 +21°C° 0.3 mm 2 m/s 762 mmHg 96%
    02:00 +21°C° 0.4 mm 2 m/s 762 mmHg 96%
    03:00 +21°C° 0.4 mm 2 m/s 762 mmHg 96%
    04:00 +21°C° 0.4 mm 2 m/s 762 mmHg 96%
    05:00 +21°C° 0.4 mm 2 m/s 762 mmHg 96%
    06:00 +21°C° 0.4 mm 2 m/s 762 mmHg 96%
    07:00 +21°C° 0.4 mm 2 m/s 763 mmHg 96%
    08:00 +21°C° 0.2 mm 2 m/s 763 mmHg 96%
    09:00 +21°C° 0.2 mm 2 m/s 763 mmHg 95%
    10:00 +21°C° 0.2 mm 2 m/s 763 mmHg 95%
    11:00 +21°C° 0.3 mm 2 m/s 762 mmHg 95%
    12:00 +23°C° 0.3 mm 2 m/s 762 mmHg 95%
    13:00 +23°C° 0.3 mm 2 m/s 761 mmHg 95%
    14:00 +23°C° 0.2 mm 2 m/s 761 mmHg 95%
    15:00 +21°C° 0.2 mm 2 m/s 761 mmHg 95%
    16:00 +21°C° 0.2 mm 2 m/s 760 mmHg 95%
    17:00 +21°C° 0.1 mm 2 m/s 761 mmHg 95%
    18:00 +21°C° 0.1 mm 2 m/s 761 mmHg 95%
    19:00 +21°C° 0.1 mm 2 m/s 761 mmHg 95%
    20:00 +21°C° 0.1 mm 2 m/s 762 mmHg 95%
    21:00 +21°C° 0.1 mm 2 m/s 762 mmHg 95%
    22:00 +21°C° 0.1 mm 2 m/s 762 mmHg 95%
    23:00 +21°C° 0.1 mm 2 m/s 762 mmHg 95%

    Poimâine, 24 Ianuarie, Joi

    Timp Temperatura Precipitaţii Vânt Presiune Umiditate
    00:00 +22°C° 0.1 mm 1 m/s 762 mmHg 95%
    01:00 +21°C° 0.1 mm 1 m/s 761 mmHg 95%
    02:00 +21°C° 0.1 mm 1 m/s 761 mmHg 95%
    03:00 +21°C° 0.1 mm 1 m/s 761 mmHg 95%
    04:00 +21°C° 0.1 mm 1 m/s 761 mmHg 95%
    05:00 +20°C° 0.2 mm 2 m/s 761 mmHg 95%
    06:00 +20°C° 0.2 mm 2 m/s 761 mmHg 95%
    07:00 +20°C° 0.2 mm 2 m/s 762 mmHg 95%
    08:00 +21°C° 0.1 mm 2 m/s 762 mmHg 93%
    09:00 +23°C° 0.1 mm 2 m/s 763 mmHg 91%
    10:00 +23°C° 0.1 mm 2 m/s 763 mmHg 89%
    11:00 +24°C° 0.1 mm 2 m/s 762 mmHg 85%
    12:00 +25°C° 0.1 mm 2 m/s 762 mmHg 80%
    13:00 +26°C° 0.1 mm 2 m/s 761 mmHg 75%
    14:00 +25°C° 0 mm 2 m/s 760 mmHg 76%
    15:00 +25°C° 0 mm 2 m/s 760 mmHg 76%
    16:00 +25°C° 0 mm 2 m/s 760 mmHg 76%
    17:00 +24°C° 0 mm 2 m/s 760 mmHg 81%
    18:00 +21°C° 0 mm 2 m/s 761 mmHg 85%
    19:00 +21°C° 0 mm 1 m/s 761 mmHg 89%
    20:00 +22°C° 0 mm 1 m/s 762 mmHg 88%
    21:00 +22°C° 0 mm 1 m/s 762 mmHg 86%
    22:00 +22°C° 0 mm 1 m/s 762 mmHg 85%
    23:00 +21°C° 0 mm 1 m/s 762 mmHg 87%

    25 Ianuarie, Vineri

    Timp Temperatura Precipitaţii Vânt Presiune Umiditate
    00:00 +21°C° 0 mm 1 m/s 762 mmHg 89%
    01:00 +20°C° 0 mm 1 m/s 762 mmHg 91%
    02:00 +20°C° 0 mm 1 m/s 761 mmHg 93%
    03:00 +19°C° 0 mm 1 m/s 761 mmHg 95%
    04:00 +18°C° 0 mm 2 m/s 761 mmHg 96%
    05:00 +18°C° 0 mm 2 m/s 761 mmHg 96%
    06:00 +18°C° 0 mm 2 m/s 762 mmHg 95%
    07:00 +18°C° 0 mm 2 m/s 762 mmHg 95%
    08:00 +20°C° 0 mm 2 m/s 763 mmHg 87%
    09:00 +24°C° 0 mm 1 m/s 763 mmHg 80%
    10:00 +26°C° 0 mm 1 m/s 763 mmHg 72%
    11:00 +26°C° 0.1 mm 1 m/s 763 mmHg 72%
    12:00 +26°C° 0.1 mm 2 m/s 762 mmHg 73%
    13:00 +26°C° 0.1 mm 2 m/s 762 mmHg 73%
    14:00 +26°C° 0.1 mm 2 m/s 761 mmHg 76%
    15:00 +25°C° 0.1 mm 2 m/s 761 mmHg 79%
    16:00 +25°C° 0.1 mm 2 m/s 760 mmHg 82%
    17:00 +24°C° 0.1 mm 2 m/s 761 mmHg 85%
    18:00 +23°C° 0.1 mm 2 m/s 762 mmHg 88%
    19:00 +21°C° 0.1 mm 2 m/s 763 mmHg 91%
    20:00 +21°C° 0.1 mm 2 m/s 763 mmHg 92%
    21:00 +21°C° 0.1 mm 2 m/s 764 mmHg 92%
    22:00 +21°C° 0.1 mm 2 m/s 764 mmHg 93%
    23:00 +21°C° 0.1 mm 2 m/s 764 mmHg 93%

    26 Ianuarie, Sâmbătă

    Timp Temperatura Precipitaţii Vânt Presiune Umiditate
    00:00 +21°C° 0.1 mm 2 m/s 764 mmHg 93%
    01:00 +20°C° 0.1 mm 2 m/s 763 mmHg 94%
    02:00 +20°C° 0.2 mm 2 m/s 763 mmHg 94%
    03:00 +21°C° 0.2 mm 2 m/s 763 mmHg 94%
    04:00 +21°C° 0.2 mm 3 m/s 763 mmHg 94%
    05:00 +21°C° 0.2 mm 3 m/s 763 mmHg 94%
    06:00 +21°C° 0.2 mm 3 m/s 764 mmHg 94%
    07:00 +21°C° 0.2 mm 3 m/s 764 mmHg 94%
    08:00 +22°C° 0.2 mm 3 m/s 764 mmHg 91%
    09:00 +24°C° 0.2 mm 3 m/s 765 mmHg 87%
    10:00 +25°C° 0.2 mm 3 m/s 765 mmHg 83%
    11:00 +24°C° 0.3 mm 3 m/s 764 mmHg 85%
    12:00 +24°C° 0.3 mm 3 m/s 764 mmHg 87%
    13:00 +22°C° 0.3 mm 4 m/s 763 mmHg 89%
    14:00 +22°C° 0.3 mm 4 m/s 763 mmHg 91%
    15:00 +22°C° 0.3 mm 4 m/s 763 mmHg 92%
    16:00 +21°C° 0.3 mm 4 m/s 762 mmHg 93%
    17:00 +21°C° 0.2 mm 3 m/s 763 mmHg 93%
    18:00 +21°C° 0.2 mm 3 m/s 763 mmHg 93%
    19:00 +20°C° 0.2 mm 3 m/s 764 mmHg 93%
    20:00 +20°C° 0.2 mm 3 m/s 764 mmHg 94%
    21:00 +20°C° 0.2 mm 3 m/s 765 mmHg 94%
    22:00 +20°C° 0.2 mm 3 m/s 765 mmHg 94%
    23:00 +20°C° 0.2 mm 3 m/s 765 mmHg 94%

    27 Ianuarie, Duminică

    Timp Temperatura Precipitaţii Vânt Presiune Umiditate
    00:00 +20°C° 0.2 mm 3 m/s 764 mmHg 94%
    01:00 +20°C° 0.2 mm 3 m/s 764 mmHg 94%
    02:00 +20°C° 0.2 mm 3 m/s 764 mmHg 94%
    03:00 +20°C° 0.2 mm 3 m/s 764 mmHg 94%
    04:00 +20°C° 0.2 mm 3 m/s 763 mmHg 94%
    05:00 +20°C° 0.2 mm 3 m/s 764 mmHg 94%
    06:00 +20°C° 0.2 mm 3 m/s 764 mmHg 94%
    07:00 +20°C° 0.2 mm 3 m/s 765 mmHg 93%
    08:00 +21°C° 0.3 mm 3 m/s 765 mmHg 92%
    09:00 +22°C° 0.3 mm 3 m/s 765 mmHg 91%
    10:00 +24°C° 0.3 mm 3 m/s 766 mmHg 90%
    11:00 +22°C° 0.3 mm 3 m/s 765 mmHg 90%
    12:00 +22°C° 0.3 mm 3 m/s 764 mmHg 91%
    13:00 +22°C° 0.3 mm 3 m/s 763 mmHg 91%
    14:00 +22°C° 0.3 mm 3 m/s 763 mmHg 92%
    15:00 +22°C° 0.3 mm 3 m/s 763 mmHg 92%
    16:00 +22°C° 0.3 mm 3 m/s 762 mmHg 93%
    17:00 +21°C° 0.3 mm 3 m/s 763 mmHg 94%
    18:00 +21°C° 0.3 mm 3 m/s 763 mmHg 94%
    19:00 +21°C° 0.3 mm 3 m/s 764 mmHg 95%
    20:00 +21°C° 0.2 mm 3 m/s 764 mmHg 95%
    21:00 +21°C° 0.2 mm 3 m/s 764 mmHg 95%
    22:00 +21°C° 0.2 mm 3 m/s 764 mmHg 95%
    23:00 +21°C° 0.2 mm 3 m/s 764 mmHg 96%
    Arată mai mult